Date,TemperatureHighF,TemperatureAvgF,TemperatureLowF,DewpointHighF,DewpointAvgF,DewpointLowF,HumidityHigh,HumidityAvg,HumidityLow,PressureMaxIn,PressureMinIn,WindSpeedMaxMPH,WindSpeedAvgMPH,GustSpeedMaxMPH,PrecipitationSumIn
2013-1-1,14,9,5,0,-4,-6,76,55,41,30.54,30.31,29,2,29,0.00
2013-1-2,15,9,4,0,-4,-9,66,56,45,30.67,30.50,27,2,28,0.00
2013-1-3,25,13,1,-2,-8,-15,63,41,18,30.73,30.62,15,0,15,0.00
2013-1-4,32,23,11,11,5,-4,66,45,28,30.62,30.26,11,0,11,0.00
2013-1-5,30,22,17,4,-3,-11,43,32,24,30.53,30.25,20,1,20,0.00
2013-1-6,43,30,16,4,-3,-17,33,24,13,30.52,30.10,4,0,9,0.01
2013-1-7,39,29,23,4,-3,-9,35,25,15,30.10,29.94,13,0,13,0.01
2013-1-8,33,28,22,15,9,-6,56,45,20,30.40,29.90,40,2,40,0.00
2013-1-9,44,33,25,11,7,1,49,35,20,30.45,30.10,17,1,17,0.00
2013-1-10,44,32,24,9,3,-5,44,30,16,30.10,29.50,13,0,13,0.00
2013-1-11,25,15,3,16,1,-12,80,52,34,29.94,29.27,32,3,32,0.00
2013-1-12,10,2,-7,-5,-11,-15,74,55,37,30.36,29.94,23,2,23,0.00
2013-1-13,5,-2,-10,-5,-11,-18,76,64,54,30.55,30.35,11,0,12,0.00
2013-1-14,6,-3,-11,-5,-13,-19,76,63,49,30.64,30.52,6,0,7,0.00
2013-1-15,22,13,-3,10,-2,-19,61,51,42,30.66,30.58,30,7,30,0.00
2013-1-16,35,23,17,16,12,8,77,62,45,30.60,30.45,18,1,19,0.00
2013-1-17,37,25,15,13,7,0,66,48,27,30.66,30.43,14,0,17,0.00
2013-1-18,37,32,28,4,1,-4,32,26,18,30.44,30.18,33,3,33,0.00
2013-1-19,39,32,26,4,1,-8,34,26,14,30.41,30.11,41,4,44,0.00
2013-1-20,36,29,24,7,2,-5,44,31,22,30.37,30.18,24,2,24,0.00
2013-1-21,36,30,24,9,3,-5,41,32,19,30.32,30.23,29,4,29,0.00
2013-1-22,42,37,31,-3,-8,-15,22,14,9,30.29,30.15,38,4,38,0.00
2013-1-23,51,40,30,9,-3,-15,31,17,8,30.28,30.15,30,2,30,0.00
2013-1-24,43,38,33,23,11,-4,63,36,18,30.16,29.96,29,3,29,0.00
2013-1-25,41,35,28,26,23,18,70,61,52,30.19,30.09,23,2,23,0.00
2013-1-26,45,35,27,28,22,18,84,62,34,30.09,29.71,18,1,18,0.00
2013-1-27,40,32,23,26,18,8,87,60,32,29.85,29.68,20,1,21,0.06
2013-1-28,39,27,17,22,15,7,88,63,39,29.79,29.57,27,1,27,0.00
2013-1-29,17,10,4,14,-2,-8,92,60,41,30.25,29.70,30,3,30,0.00
2013-1-30,23,16,4,13,4,-7,77,59,50,30.26,30.08,56,13,56,0.00
2013-1-31,29,25,22,13,9,4,61,50,34,30.31,30.08,53,11,53,0.00
2013-2-1,29,25,21,18,12,8,76,59,50,30.33,30.14,46,6,46,0.00
2013-2-2,37,28,21,9,5,-2,55,38,20,30.49,30.27,33,3,33,0.01
2013-2-3,41,32,25,4,-1,-9,34,25,15,30.40,30.01,30,2,31,0.00
2013-2-4,37,29,20,11,4,-3,47,34,23,30.08,29.97,42,3,42,0.00
2013-2-5,43,34,27,21,16,10,60,48,39,30.13,29.91,33,3,33,0.00
2013-2-6,40,32,22,24,17,11,81,56,35,30.11,29.86,17,1,17,0.00
2013-2-7,36,23,14,13,1,-10,69,39,15,30.27,30.09,9,1,15,0.01
2013-2-8,38,26,17,18,4,-2,71,39,26,30.23,29.83,15,0,15,0.00
2013-2-9,27,22,16,21,13,4,81,69,50,29.83,29.56,18,1,18,0.00
2013-2-10,21,15,10,12,6,-1,81,65,41,30.23,29.65,20,1,20,0.00
2013-2-11,20,9,-2,12,2,-10,80,73,66,30.41,30.23,8,0,10,0.12
2013-2-12,20,11,4,3,-1,-8,72,58,32,30.44,30.39,19,1,19,0.01
2013-2-13,27,20,13,12,7,3,63,57,51,30.43,30.23,32,4,32,0.00
2013-2-14,26,19,12,14,9,6,84,65,46,30.42,30.18,31,4,31,0.00
2013-2-15,24,18,15,11,7,3,79,60,46,30.57,30.39,38,8,38,0.00
2013-2-16,34,27,20,12,8,2,56,45,28,30.54,30.16,44,6,44,0.00
2013-2-17,40,31,18,10,1,-9,57,30,17,30.17,29.67,33,3,34,0.00
2013-2-18,23,16,7,8,0,-12,72,51,38,30.32,29.74,25,2,25,0.00
2013-2-19,34,22,10,8,-5,-19,59,32,14,30.33,29.92,11,0,11,0.00
2013-2-20,32,22,15,16,8,2,79,58,35,29.92,29.69,7,1,14,0.00
2013-2-21,20,15,10,12,9,4,82,77,67,30.08,29.73,11,0,11,0.10
2013-2-22,24,15,10,12,4,-3,81,60,46,30.18,30.07,21,1,22,0.03
2013-2-23,36,23,11,19,9,-3,80,56,41,30.14,29.79,25,1,25,0.01
2013-2-24,20,16,5,13,10,-3,83,76,65,30.30,29.76,23,1,23,0.00
2013-2-25,30,18,5,6,2,-1,79,51,30,30.36,30.04,16,1,17,0.17
2013-2-26,25,19,13,14,6,1,76,58,42,30.31,29.93,21,2,21,0.00
2013-2-27,22,13,2,1,-2,-7,70,50,34,30.56,30.30,26,2,26,0.00
2013-2-28,24,18,9,10,3,-6,69,52,38,30.60,30.47,40,7,40,0.00
2013-3-1,32,26,19,18,14,9,71,61,50,30.57,30.47,34,9,34,0.00
2013-3-2,42,32,26,20,17,11,65,54,34,30.52,30.17,28,4,30,0.00
2013-3-3,44,36,29,23,20,15,73,53,34,29.83,29.67,26,4,32,0.00
2013-3-4,34,22,12,25,13,-4,88,67,43,30.32,29.67,41,4,41,0.02
2013-3-5,44,27,8,4,-3,-11,54,29,14,30.52,30.30,15,1,15,0.00
2013-3-6,49,38,21,16,8,-8,41,30,18,30.30,29.89,20,1,20,0.00
2013-3-7,49,38,29,19,12,7,54,35,24,29.97,29.87,16,1,16,0.00
2013-3-8,45,33,25,24,17,4,86,53,35,29.95,29.65,13,1,13,0.00
2013-3-9,29,24,13,24,19,4,88,81,67,30.17,29.60,20,1,20,0.04
2013-3-10,30,21,10,12,8,1,72,56,43,30.38,30.16,30,6,30,0.17
2013-3-11,34,28,23,21,14,7,84,56,46,30.31,30.02,43,7,44,0.03
2013-3-12,38,29,17,23,17,14,86,64,46,30.36,30.16,29,2,29,0.09
2013-3-13,44,38,31,21,19,16,59,47,34,30.37,30.25,26,4,26,0.00
2013-3-14,53,43,36,20,16,11,49,35,19,30.32,30.13,27,2,27,0.00
2013-3-15,55,45,35,25,19,14,55,35,24,30.16,29.84,21,2,26,0.00
2013-3-16,44,34,30,27,24,21,75,67,49,29.86,29.75,9,0,10,0.05
2013-3-17,35,27,17,22,18,12,83,70,53,29.91,29.62,30,3,30,0.01
2013-3-18,29,23,14,15,11,4,78,60,42,30.17,29.91,28,3,28,0.02
2013-3-19,34,27,17,14,-1,-11,62,32,15,30.43,30.11,43,4,43,0.01
2013-3-20,45,31,13,21,9,-10,63,40,27,30.42,29.82,33,3,33,0.00
2013-3-21,42,30,20,26,17,7,78,58,37,29.84,29.53,28,4,33,0.03
2013-3-22,36,23,12,18,10,1,82,62,24,29.99,29.78,18,1,18,0.00
2013-3-23,17,12,5,12,4,-2,85,70,54,30.42,29.95,10,0,10,0.00
2013-3-24,16,9,-1,0,-4,-11,75,57,31,30.53,30.39,30,4,30,0.00
2013-3-25,26,14,6,8,-2,-6,67,50,24,30.56,30.49,28,3,33,0.18
2013-3-26,43,30,11,21,12,-3,65,48,33,30.50,30.10,24,2,24,0.07
2013-3-27,47,34,23,26,21,16,85,63,30,30.15,30.02,27,2,27,0.01
2013-3-28,48,36,26,26,19,13,76,52,31,30.19,30.10,21,1,21,0.00
2013-3-29,48,36,29,32,23,18,78,60,38,30.19,30.10,28,2,28,0.00
2013-3-30,46,37,29,30,24,20,85,59,38,30.19,30.03,34,3,34,0.01
2013-3-31,30,26,23,26,23,19,88,86,84,30.19,30.14,6,0,6,0.00
2013-4-1,46,34,30,31,28,26,85,79,50,30.07,29.96,7,0,9,0.00
2013-4-2,37,31,28,30,27,25,92,85,73,30.16,30.01,6,0,7,0.10
2013-4-3,46,34,20,26,22,16,86,66,38,30.25,30.13,24,2,24,0.23
2013-4-4,55,42,30,23,20,16,68,43,27,30.23,30.00,22,2,25,0.00
2013-4-5,57,42,33,31,21,14,86,46,24,30.01,29.63,33,2,38,0.00
2013-4-6,50,40,29,25,21,18,70,49,29,29.92,29.78,19,2,19,0.04
2013-4-7,48,37,32,30,23,18,81,57,38,29.86,29.69,30,2,30,0.00
2013-4-8,50,37,24,29,23,18,84,59,31,29.74,29.43,18,1,18,0.02
2013-4-9,24,12,4,20,6,-2,87,75,61,30.34,29.63,12,1,12,0.05
2013-4-10,28,14,-2,16,5,-8,79,67,44,30.42,30.18,36,2,36,0.16
2013-4-11,38,30,22,26,20,10,80,65,54,30.19,29.93,39,6,39,0.06
2013-4-12,45,34,25,26,20,8,89,61,26,29.99,29.91,30,2,30,0.01
2013-4-13,51,39,26,30,16,9,86,42,27,29.97,29.42,35,2,35,0.00
2013-4-14,34,26,20,30,15,4,89,64,33,29.84,29.41,27,3,27,0.18
2013-4-15,29,22,19,22,16,11,88,77,59,30.08,29.77,13,0,13,0.05
2013-4-16,31,22,15,24,17,12,89,82,73,30.09,29.95,10,0,10,0.14
2013-4-17,28,18,8,19,12,0,92,77,63,30.27,29.97,11,1,11,0.08
2013-4-18,23,14,6,6,1,-2,76,57,41,30.54,30.24,37,6,37,0.04
2013-4-19,42,29,18,18,12,6,64,51,36,30.46,30.12,40,5,40,0.20
2013-4-20,44,33,25,28,22,16,81,63,40,30.12,29.97,22,2,22,0.01
2013-4-21,51,36,29,24,18,13,81,49,24,30.13,30.00,25,2,25,0.02
2013-4-22,42,27,14,29,19,8,89,74,41,30.26,29.89,22,1,22,0.17
2013-4-23,38,19,11,16,8,2,80,64,29,30.42,30.21,30,2,30,0.33
2013-4-24,41,27,14,16,8,0,64,44,28,30.43,30.34,32,3,32,0.06
2013-4-25,58,38,22,23,12,-1,57,35,21,30.37,30.00,22,1,22,0.00
2013-4-26,55,42,31,23,17,11,60,39,25,30.24,30.05,15,1,15,0.00
2013-4-27,62,44,32,21,16,11,53,33,19,30.24,30.06,30,4,30,0.00
2013-4-28,65,50,38,27,21,15,48,32,21,30.07,29.78,32,4,32,0.00
2013-4-29,66,51,37,29,24,18,68,38,20,29.82,29.50,28,2,28,0.00
2013-4-30,53,44,32,36,28,18,85,55,31,29.78,29.48,16,2,16,0.01
2013-5-1,32,24,15,28,19,10,88,80,66,30.67,29.78,11,0,11,0.06
2013-5-2,40,23,7,18,10,1,81,61,35,30.92,30.65,23,2,23,0.46
2013-5-3,53,37,24,26,15,7,67,42,25,30.66,30.14,17,2,18,0.03
2013-5-4,45,36,25,31,24,16,72,60,42,30.24,30.07,17,1,17,0.00
2013-5-5,46,37,26,29,25,20,79,62,47,30.23,30.10,11,1,11,0.00
2013-5-6,54,43,31,32,28,23,79,57,34,30.15,29.88,17,1,17,0.00
2013-5-7,57,45,35,35,29,23,80,56,29,29.92,29.81,18,1,19,0.01
2013-5-8,44,36,32,35,30,26,91,80,68,30.12,29.87,8,0,11,0.35
2013-5-9,50,38,33,36,32,30,91,79,54,30.24,30.11,13,0,14,0.81
2013-5-10,28,28,28,24,24,24,84,84,84,30.24,30.23,0,0,0,0.00
2013-5-13,74,64,50,38,32,28,49,32,20,30.03,29.85,23,3,26,0.07
2013-5-14,69,56,48,43,33,29,60,44,24,29.85,29.73,24,2,24,0.02
2013-5-15,65,52,46,44,36,29,84,56,30,29.80,29.73,17,1,19,0.21
2013-5-16,74,62,43,36,32,29,69,35,21,29.81,29.71,23,4,28,0.00
2013-5-17,77,57,39,34,25,16,71,35,12,29.74,29.59,20,1,20,0.00
2013-5-18,60,48,40,34,26,18,76,43,24,29.73,29.61,23,1,23,0.00
2013-5-19,58,43,34,30,26,22,72,53,30,29.82,29.71,32,3,32,0.00
2013-5-20,50,42,36,36,29,24,83,62,46,29.98,29.76,30,3,30,0.00
2013-5-21,61,46,34,30,26,19,63,45,27,30.01,29.88,30,5,30,0.00
2013-5-22,65,49,33,40,31,23,79,54,26,29.92,29.78,18,1,18,0.01
2013-5-23,62,49,38,45,40,35,92,73,52,29.93,29.79,17,2,17,0.00
2013-5-24,77,56,38,38,28,17,85,39,12,29.89,29.76,21,1,22,0.00
2013-5-25,80,59,39,29,20,11,50,25,9,29.81,29.68,23,1,23,0.00
2013-5-26,70,58,45,32,24,18,44,29,15,29.72,29.63,15,1,15,0.00
2013-5-27,74,57,41,28,21,12,44,26,16,29.69,29.56,23,2,23,0.00
2013-5-28,69,55,38,37,23,19,48,31,16,29.60,29.40,15,1,17,0.00
2013-5-29,54,45,37,37,30,23,86,58,36,29.61,29.35,33,3,33,0.18
2013-5-30,53,42,34,30,25,19,82,52,27,29.88,29.56,42,7,42,0.02
2013-5-31,58,45,36,25,17,10,55,33,18,29.98,29.74,41,9,41,0.00
2013-6-1,67,48,36,37,28,17,69,46,33,30.09,29.97,29,3,29,0.00
2013-6-2,77,54,33,34,29,21,83,45,18,30.08,29.72,19,1,19,0.00
2013-6-3,74,61,47,34,26,20,40,27,17,29.72,29.54,35,3,35,0.00
2013-6-4,68,52,38,48,35,16,87,56,23,29.96,29.66,18,2,18,0.08
2013-6-5,51,44,38,43,39,33,92,83,69,30.08,29.92,13,1,13,0.05
2013-6-6,72,53,35,43,34,26,85,51,30,30.09,29.95,18,1,18,0.01
2013-6-7,74,56,40,41,35,28,78,48,23,29.97,29.66,22,2,22,0.01
2013-6-8,66,58,46,44,36,29,69,45,29,29.80,29.55,30,4,34,0.00
2013-6-9,84,61,41,36,32,27,77,38,16,29.92,29.78,26,3,26,0.00
2013-6-10,90,68,50,42,33,27,53,29,14,29.79,29.58,21,1,21,0.00
2013-6-11,88,69,53,35,26,17,46,22,11,29.65,29.50,28,2,30,0.00
2013-6-12,76,64,46,38,30,21,46,29,21,29.84,29.64,19,1,19,0.00
2013-6-13,82,65,51,45,33,26,50,33,17,29.83,29.62,23,1,23,0.00
2013-6-14,79,63,52,40,34,25,54,36,17,29.70,29.61,15,1,15,0.00
2013-6-15,72,57,41,46,40,28,75,53,39,29.89,29.69,19,1,19,0.00
2013-6-16,71,57,44,42,35,28,71,45,30,29.97,29.86,32,2,32,0.00
2013-6-18,59,59,59,42,42,42,54,54,54,29.91,29.91,10,10,24,0.00
2013-6-19,59,59,59,42,42,42,54,54,54,29.91,29.91,10,10,24,0.00
2013-6-20,59,59,59,42,42,42,54,54,54,29.91,29.91,10,10,24,0.00
2013-6-21,80,59,44,42,27,21,57,33,13,29.91,29.59,17,1,24,0.10
2013-6-22,81,62,44,43,34,22,70,37,16,29.70,29.55,17,1,17,0.00
2013-6-23,73,57,40,44,33,20,64,41,26,29.76,29.64,15,1,16,0.00
2013-6-24,81,61,42,40,31,19,75,38,13,29.73,29.57,16,1,17,0.00
2013-6-25,84,63,46,37,30,21,42,29,18,29.80,29.61,25,3,25,0.00
2013-6-26,86,67,48,39,34,29,50,31,16,29.86,29.76,21,1,21,0.00
2013-6-27,89,70,56,41,35,26,41,29,14,29.93,29.83,27,2,27,0.00
2013-6-28,82,68,56,54,42,32,83,41,19,29.93,29.78,22,1,22,0.15
2013-6-29,80,63,52,52,46,42,77,54,28,29.94,29.84,17,0,17,0.00
2013-6-30,70,58,50,53,46,42,80,65,37,30.00,29.84,16,1,16,0.04
2013-7-1,73,56,46,51,44,36,86,64,40,30.09,29.99,15,1,15,0.03
2013-7-2,69,57,44,56,44,36,87,64,40,30.07,29.95,19,1,19,0.09
2013-7-3,74,56,43,53,42,37,88,63,32,29.96,29.76,29,1,29,0.19
2013-7-4,73,60,51,52,43,38,76,54,33,29.83,29.73,18,1,18,0.09
2013-7-5,75,62,52,52,46,40,82,56,36,29.74,29.61,22,2,24,0.07
2013-7-6,80,64,53,50,46,42,81,53,34,29.74,29.65,19,2,23,0.03
2013-7-7,80,65,53,55,45,40,70,51,32,29.80,29.70,19,1,19,0.03
2013-7-8,82,65,49,48,44,35,86,50,24,29.88,29.77,25,2,28,0.16
2013-7-9,83,68,55,46,39,35,54,36,22,29.92,29.85,17,2,17,0.00
2013-7-10,83,66,50,54,45,37,71,48,25,29.91,29.74,14,1,14,0.14
2013-7-11,93,69,54,52,45,36,80,47,19,29.82,29.57,14,1,15,0.15
2013-7-12,73,60,54,55,49,44,85,70,42,29.85,29.63,17,1,19,0.23
2013-7-13,76,59,53,55,50,46,90,74,40,29.95,29.84,15,1,15,1.05
2013-7-14,66,56,50,54,50,46,91,80,59,30.01,29.90,16,1,16,0.07
2013-7-15,66,58,53,55,51,48,91,79,61,29.99,29.87,13,1,13,0.05
2013-7-16,78,59,45,50,46,41,90,64,34,29.99,29.90,16,1,16,0.01
2013-7-17,86,64,48,52,46,40,78,54,30,29.99,29.85,10,1,11,0.00
2013-7-18,74,62,54,51,47,44,81,58,39,29.93,29.74,15,1,15,0.13
2013-7-19,72,61,53,54,49,44,81,65,48,29.96,29.83,14,1,14,0.01
2013-7-20,81,64,48,52,43,29,79,50,17,29.85,29.68,23,2,23,0.00
2013-7-21,86,68,51,53,36,21,80,35,12,29.71,29.61,32,3,32,0.00
2013-7-22,90,69,56,39,29,20,44,25,10,29.72,29.64,25,3,25,0.00
2013-7-23,80,67,53,48,33,18,69,30,14,29.83,29.71,18,1,18,0.00
2013-7-24,77,61,53,55,48,42,82,63,37,29.90,29.76,17,1,17,0.05
2013-7-25,63,54,49,50,46,42,87,74,55,30.11,29.82,22,1,22,0.12
2013-7-26,85,60,44,51,44,40,88,59,26,30.15,29.97,18,1,18,0.02
2013-7-27,73,60,50,53,44,36,86,58,27,29.98,29.69,19,1,19,0.16
2013-7-28,74,56,49,56,50,45,89,79,48,29.79,29.68,11,0,11,0.40
2013-7-29,69,57,49,50,44,42,83,64,43,30.01,29.77,19,2,19,0.04
2013-7-30,74,59,47,50,43,38,80,58,29,30.08,29.98,20,1,22,0.04
2013-7-31,81,63,49,46,42,35,73,48,27,30.10,29.93,12,0,15,0.00
2013-8-1,74,61,49,52,44,38,79,55,30,29.96,29.74,21,1,21,0.01
2013-8-2,85,66,54,45,42,35,60,43,19,29.79,29.71,29,3,29,0.00
2013-8-3,76,61,50,53,45,38,86,57,30,30.01,29.75,23,1,23,0.11
2013-8-4,75,60,48,50,44,39,88,59,29,29.98,29.88,22,1,22,0.12
2013-8-5,70,61,53,52,44,37,78,56,32,29.91,29.81,22,1,22,0.09
2013-8-6,73,60,53,48,41,35,66,52,25,29.87,29.78,21,1,24,0.01
2013-8-7,71,57,48,47,41,35,71,56,32,29.91,29.81,14,0,14,0.00
2013-8-8,65,53,45,52,42,32,82,66,48,30.03,29.83,14,1,18,0.21
2013-8-9,64,52,43,47,41,36,82,68,44,30.13,30.01,15,1,15,0.11
2013-8-10,72,57,42,48,39,32,81,54,24,30.13,29.99,22,1,22,0.01
2013-8-11,70,57,48,51,41,35,81,57,38,30.02,29.93,13,1,13,0.13
2013-8-12,76,56,46,49,42,35,85,61,32,30.08,29.95,18,1,18,0.23
2013-8-13,64,52,44,52,44,39,91,77,54,30.15,29.96,26,1,26,0.72
2013-8-14,71,56,42,45,39,31,81,55,26,30.11,29.97,22,2,22,0.00
2013-8-15,76,60,47,45,36,29,65,43,19,30.03,29.91,22,2,26,0.00
2013-8-16,77,62,48,42,35,26,69,39,17,30.00,29.91,21,1,21,0.00
2013-8-17,79,65,52,40,34,26,54,33,16,29.97,29.80,20,2,21,0.00
2013-8-18,74,63,53,44,39,33,61,41,25,29.91,29.79,18,1,18,0.00
2013-8-19,78,66,54,47,40,35,57,40,26,29.91,29.80,16,1,16,0.00
2013-8-20,79,67,55,42,38,33,50,36,20,29.83,29.72,12,1,14,0.00
2013-8-21,74,63,53,53,44,37,72,50,33,29.89,29.76,12,1,12,0.02
2013-8-22,71,57,49,54,46,42,86,68,41,29.99,29.89,11,0,11,0.26
2013-8-23,73,55,50,56,48,43,89,80,39,30.02,29.80,16,0,16,0.68
2013-8-24,70,56,47,54,47,43,88,74,49,29.96,29.84,7,1,10,0.19
2013-8-25,71,58,49,55,48,43,88,72,39,30.00,29.93,17,0,17,0.15
2013-8-26,72,61,51,56,49,46,88,67,42,29.98,29.91,14,1,14,0.04
2013-8-27,52,52,51,50,48,47,90,88,84,29.94,29.92,5,1,6,0.01
2013-8-30,51,51,51,46,46,46,83,83,83,29.92,29.92,0,0,0,0.01
2013-8-31,51,51,51,46,46,46,83,83,83,29.92,29.92,0,0,0,0.01
2013-9-1,51,51,51,46,46,46,83,83,83,29.92,29.92,0,0,0,0.01
2013-9-2,51,51,51,46,46,46,83,83,83,29.92,29.92,0,0,0,0.01
2013-9-3,51,51,51,46,46,46,83,83,83,29.92,29.92,0,0,0,0.01
2013-9-4,51,51,51,46,46,46,83,83,83,29.92,29.92,0,0,0,0.01
2013-9-5,51,51,51,46,46,46,83,83,83,29.92,29.92,0,0,0,0.01
2013-9-6,51,51,51,46,46,46,83,83,83,29.92,29.92,0,0,0,0.01
2013-9-7,51,51,51,46,46,46,83,83,83,29.92,29.92,0,0,0,0.01
2013-9-8,51,51,51,46,46,46,83,83,83,29.92,29.92,0,0,0,0.01
2013-9-9,51,51,51,46,46,46,83,83,83,29.92,29.92,0,0,0,0.01
2013-9-10,51,51,51,46,46,46,83,83,83,29.92,29.92,0,0,0,0.01
2013-9-11,51,51,51,46,46,46,83,83,83,29.92,29.92,0,0,0,0.01
2013-9-12,59,52,49,52,49,46,94,89,77,30.12,29.92,7,0,10,1.44
2013-9-13,63,53,48,54,50,45,95,89,68,30.00,29.75,10,0,10,0.48
2013-9-14,62,53,45,49,45,41,92,76,49,29.87,29.76,10,0,10,0.03
2013-9-15,51,48,45,48,45,43,93,89,84,30.13,29.86,7,0,7,0.67
2013-9-16,61,50,39,51,44,37,95,81,63,30.14,29.98,11,0,11,0.01
2013-9-17,69,56,44,44,39,33,79,57,28,30.01,29.72,11,0,11,0.00
2013-9-18,66,53,46,44,40,36,83,62,34,29.80,29.65,24,2,30,0.01
2013-9-19,54,46,41,42,38,35,87,74,61,30.09,29.77,20,1,20,0.04
2013-9-20,57,43,33,42,36,30,91,79,55,30.12,30.00,4,0,4,0.00
2013-9-21,66,50,41,41,32,25,64,50,31,30.03,29.69,22,1,22,0.00
2013-9-22,61,50,41,47,39,31,87,66,44,29.70,29.42,17,1,19,0.15
2013-9-23,47,42,39,38,30,23,87,63,46,30.10,29.35,30,7,43,0.03
2013-9-24,64,49,38,35,26,15,60,41,23,30.15,29.80,28,1,28,0.00
2013-9-25,69,56,46,30,23,15,40,28,16,29.81,29.36,22,1,22,0.00
2013-9-26,56,47,35,42,34,24,84,63,34,29.64,29.37,11,1,11,0.00
2013-9-27,43,38,30,40,32,18,92,81,60,29.99,29.62,33,1,33,0.22
2013-9-28,54,40,29,28,20,10,67,48,31,30.24,29.97,33,2,33,0.00
2013-9-29,61,49,36,26,20,14,54,32,21,30.19,29.80,30,4,30,0.00
2013-9-30,68,56,46,35,28,22,46,34,24,29.84,29.65,21,1,21,0.00
2013-10-1,59,50,40,39,31,22,75,50,37,29.88,29.75,14,1,14,0.00
2013-10-2,61,49,38,34,29,23,79,49,29,29.93,29.78,18,1,18,0.00
2013-10-3,56,44,35,40,33,23,92,68,33,29.78,29.59,14,1,14,0.02
2013-10-4,41,30,23,38,22,11,92,72,51,30.20,29.59,33,2,33,0.35
2013-10-5,40,31,22,14,10,1,69,43,20,30.45,30.19,33,4,33,0.00
2013-10-6,53,43,32,28,21,4,55,42,29,30.45,30.23,25,4,25,0.00
2013-10-7,65,49,36,29,20,11,52,33,16,30.24,29.88,7,1,8,0.00
2013-10-8,62,50,41,29,23,14,55,34,16,29.89,29.63,15,0,15,0.00
2013-10-9,53,44,34,37,30,24,80,60,40,29.88,29.70,18,1,18,0.00
2013-10-10,50,39,34,38,30,21,88,71,51,29.87,29.48,37,2,37,0.00
2013-10-11,43,38,34,28,24,21,69,57,48,30.05,29.48,38,4,38,0.03
2013-10-12,44,35,25,34,26,18,86,69,40,30.20,30.04,14,1,14,0.00
2013-10-13,52,38,28,36,28,22,87,70,49,30.19,29.99,14,1,14,0.00
2013-10-14,42,37,30,29,25,21,79,61,52,30.15,29.81,26,2,26,0.06
2013-10-15,31,26,22,25,23,20,90,86,79,30.33,30.14,7,1,7,0.03
2013-10-16,36,29,22,21,17,12,88,62,43,30.31,30.19,28,3,28,0.03
2013-10-17,42,32,25,26,18,12,83,58,33,30.22,30.05,15,1,20,0.00
2013-10-18,29,26,22,24,15,9,87,64,44,30.34,30.05,32,4,32,0.13
2013-10-19,43,35,25,20,16,10,59,47,37,30.33,30.01,33,4,35,0.04
2013-10-20,39,33,23,29,22,16,88,65,46,30.16,29.93,25,1,25,0.00
2013-10-21,41,31,21,22,19,16,92,63,41,30.37,30.15,30,2,30,0.04
2013-10-22,50,41,30,25,22,19,63,48,36,30.35,30.16,27,2,27,0.00
2013-10-23,53,41,32,29,23,18,75,49,28,30.19,30.09,20,1,20,0.00
2013-10-24,50,38,29,27,23,15,74,55,26,30.26,30.18,13,0,13,0.00
2013-10-25,53,43,34,30,23,17,63,46,26,30.25,30.12,21,1,21,0.00
2013-10-26,48,38,28,29,25,19,77,60,42,30.30,30.22,12,0,12,0.00
2013-10-27,51,42,34,22,20,17,59,43,27,30.23,29.88,22,1,22,0.00
2013-10-28,35,30,25,29,23,18,92,76,52,30.03,29.85,9,0,9,0.00
2013-10-29,47,34,21,28,21,12,90,64,24,30.05,29.83,24,1,27,0.00
2013-10-30,37,30,25,28,19,12,89,64,46,29.95,29.80,26,3,26,0.15
2013-10-31,33,28,25,20,16,12,67,59,49,30.09,29.91,38,4,38,0.00
2013-11-1,33,30,26,23,17,13,83,57,50,30.36,30.03,34,8,36,0.00
2013-11-2,52,39,24,13,6,-1,56,28,14,30.37,29.81,21,1,21,0.00
2013-11-3,48,42,24,22,12,1,71,31,15,29.81,29.48,27,1,27,0.00
2013-11-4,28,24,18,21,15,2,89,71,41,30.07,29.69,18,1,18,0.00
2013-11-5,26,20,15,20,8,-10,85,59,27,30.37,30.00,27,2,27,0.00
2013-11-6,32,27,18,14,10,-8,57,48,28,30.57,30.33,46,6,46,0.00
2013-11-7,47,35,24,21,17,14,66,48,31,30.56,30.09,22,1,22,0.00
2013-11-8,49,42,32,19,15,9,50,34,24,30.09,29.72,42,4,42,0.00
2013-11-9,50,40,30,21,16,10,53,39,29,30.24,30.01,25,2,25,0.00
2013-11-10,49,40,33,19,16,13,51,37,28,30.26,30.20,21,1,21,0.00
2013-11-11,48,37,24,24,18,14,92,48,26,30.56,30.23,26,2,26,0.00
2013-11-12,43,33,23,23,18,7,86,58,28,30.66,30.55,11,0,11,0.00
2013-11-13,50,41,32,17,10,3,42,29,20,30.55,30.02,24,1,24,0.00
2013-11-14,42,35,28,24,14,1,71,42,26,30.04,29.81,25,2,25,0.00
2013-11-15,43,34,26,25,12,-2,82,43,25,29.81,29.51,19,1,19,0.00
2013-11-16,40,31,24,26,17,8,87,58,35,29.59,29.35,34,4,34,0.00
2013-11-17,34,27,19,18,15,9,87,62,35,30.28,29.55,46,6,46,0.03
2013-11-18,34,30,27,16,11,6,56,45,39,30.27,30.09,31,2,31,0.05
2013-11-19,43,35,28,24,16,5,68,46,32,30.09,29.81,25,2,25,0.00
2013-11-20,40,34,29,26,21,18,84,59,41,29.94,29.80,19,1,19,0.00
2013-11-21,30,14,5,24,8,-1,84,79,72,30.79,29.93,7,0,7,0.00
2013-11-22,32,22,13,22,12,4,82,69,33,30.88,30.75,5,0,5,0.07
2013-11-23,27,22,17,20,16,12,92,78,65,30.75,30.44,5,0,5,0.09
2013-11-24,40,32,24,31,24,9,89,74,41,30.46,30.03,12,1,12,0.12
2013-11-25,31,26,21,16,12,7,69,55,37,30.43,30.06,17,1,17,0.01
2013-11-26,34,28,23,15,13,11,63,55,45,30.54,30.41,20,3,20,0.00
2013-11-27,44,34,26,17,13,9,59,43,27,30.42,30.21,25,2,25,0.00
2013-11-28,39,31,22,21,15,12,66,52,40,30.27,30.18,6,0,6,0.00
2013-11-29,39,33,28,17,14,10,55,45,37,30.29,30.20,19,1,19,0.00
2013-11-30,38,31,26,14,10,5,52,41,28,30.32,30.25,22,2,22,0.00
2013-12-1,37,32,25,23,14,7,64,47,35,30.28,29.86,50,6,50,0.00
2013-12-2,38,35,31,23,19,17,68,53,46,29.90,29.63,48,11,48,0.00
2013-12-3,33,26,5,27,17,-1,82,71,54,29.66,29.47,20,1,20,0.01
2013-12-4,5,-2,-9,-1,-8,-18,78,72,63,30.43,29.62,7,0,7,0.00
2013-12-5,7,-4,-13,0,-11,-20,78,72,66,30.53,30.39,5,0,5,0.00
2013-12-6,8,-3,-14,1,-10,-22,77,71,63,30.70,30.52,6,0,6,0.00
2013-12-7,17,8,-2,7,0,-9,84,71,52,30.66,30.01,6,0,6,0.00
2013-12-8,12,7,0,7,-2,-12,80,65,44,30.25,29.88,27,1,27,0.00
2013-12-9,12,4,-4,-1,-12,-19,68,49,32,30.69,30.25,41,7,41,0.00
2013-12-10,26,21,11,9,5,-3,61,50,44,30.67,30.27,56,9,56,0.00
2013-12-11,31,23,13,6,-1,-7,70,37,21,30.56,30.35,23,2,23,0.00
2013-12-12,43,33,23,9,1,-7,39,26,19,30.55,30.02,16,1,16,0.00
2013-12-13,32,28,20,11,6,-3,56,39,24,30.22,29.88,28,3,28,0.00
2013-12-14,28,21,13,14,8,3,63,55,45,30.53,30.24,36,3,36,0.00
2013-12-15,36,32,25,16,13,9,62,47,33,30.47,30.20,47,6,47,0.00
2013-12-16,41,36,31,17,10,5,46,34,24,30.28,30.11,46,13,46,0.00
2013-12-17,42,37,30,14,11,7,42,33,26,30.39,30.17,29,3,29,0.00
2013-12-18,45,38,30,14,10,8,48,33,24,30.17,29.73,14,1,14,0.00
2013-12-19,43,30,19,20,15,12,87,57,29,29.73,29.55,16,0,17,0.00
2013-12-20,33,23,16,18,12,3,86,63,47,29.79,29.70,18,0,18,0.00
2013-12-21,25,19,13,11,6,1,76,56,47,30.06,29.65,25,2,25,0.00
2013-12-22,21,18,13,10,4,1,70,56,47,30.39,30.04,43,7,43,0.00
2013-12-23,30,24,19,18,10,6,66,55,46,30.46,30.33,36,5,36,0.00
2013-12-24,34,22,12,21,10,-2,78,59,45,30.42,30.15,36,7,40,0.00
2013-12-25,29,24,14,5,1,-5,47,37,26,30.64,30.40,29,3,29,0.00
2013-12-26,36,29,23,14,9,-4,65,44,24,30.50,30.37,21,4,32,0.00
2013-12-27,43,32,24,19,16,13,64,53,37,30.46,30.18,13,0,13,0.00
2013-12-28,39,30,15,19,16,10,83,57,38,30.19,29.94,22,1,22,0.00
2013-12-29,25,18,10,12,6,-2,82,61,33,30.32,30.14,49,4,49,0.00
2013-12-30,28,24,21,11,8,4,62,49,37,30.42,30.19,40,3,40,0.00
2013-12-31,35,31,26,18,15,7,62,52,37,30.32,29.98,40,4,40,0.00
2014-1-1,30,22,18,22,12,4,87,65,48,30.39,29.95,38,7,38,0.00
2014-1-2,37,29,20,18,8,-5,57,41,24,30.47,30.12,31,3,31,0.00